Location: Dana
(41.8364°N, 106.7042°W)
Time: 14:08:36
(UTC+00:00)

Injun/Solrad 3 - Pass Details

Date: 13 May 2026
Orbit: 867 x 989 km, 66.8° (Epoch: 7 June)

Event Time Altitude Azimuth Distance (km) Brightness Sun altitude
Rises 06:53:49 0° 335° (NNW) 3,674 12.0 -29.7°
Reaches altitude 10° 06:56:40 10° 345° (NNW) 2,736 11.2 -29.7°
Maximum altitude 07:02:24 33° 48° (NE) 1,597 9.4 -29.8°
Enters shadow 07:05:43 21° 95° (E) 2,056 9.6 -29.7°
Drops below altitude 10° 07:08:08 10° 111° (ESE) 2,744 - -29.7°
Sets 07:10:59 0° 121° (ESE) 3,685 - -29.7°
